Time,TemperatureF,DewpointF,PressureIn,WindDirection,WindDirectionDegrees,WindSpeedMPH,WindSpeedGustMPH,Humidity,HourlyPrecipIn,Conditions,Clouds,dailyrainin,SoftwareType,DateUTC
2013-01-20 00:00:00,-0.6,-8.3,29.88,WNW,292,1.3,15.3,69,0.00,,SKC,0.00,VWS V14.01,2013-01-20 06:00:00,
2013-01-20 00:20:00,-0.9,-8.6,29.91,WSW,248,3.3,11.0,69,0.00,,SKC,0.00,VWS V14.01,2013-01-20 06:20:00,
2013-01-20 00:40:00,-1.3,-9.0,29.91,NNE,22,2.3,12.5,69,0.00,,SKC,0.00,VWS V14.01,2013-01-20 06:40:00,
2013-01-20 01:00:00,-1.7,-9.3,29.91,NW,315,1.3,9.8,69,0.00,,SKC,0.00,VWS V14.01,2013-01-20 07:00:00,
2013-01-20 01:20:00,-1.8,-9.5,29.91,West,270,2.8,9.8,69,0.00,,SKC,0.00,VWS V14.01,2013-01-20 07:20:00,
2013-01-20 01:40:00,-2.2,-9.9,29.91,NNW,338,2.3,10.2,69,0.00,,SKC,0.00,VWS V14.01,2013-01-20 07:40:00,
2013-01-20 02:00:00,-2.4,-10.0,29.94,WSW,248,2.8,8.6,69,0.00,,SKC,0.00,VWS V14.01,2013-01-20 08:00:00,
2013-01-20 02:20:00,-2.6,-10.2,29.97,WSW,248,1.5,10.2,69,0.00,,SKC,0.00,VWS V14.01,2013-01-20 08:20:00,
2013-01-20 02:40:00,-2.9,-10.6,29.97,WNW,292,3.6,9.8,69,0.00,,SKC,0.00,VWS V14.01,2013-01-20 08:40:00,
2013-01-20 03:00:00,-3.1,-10.7,29.97,NW,315,7.2,11.0,69,0.00,,SKC,0.00,VWS V14.01,2013-01-20 09:00:00,
2013-01-20 03:20:00,-3.5,-11.1,29.97,WNW,292,2.8,11.0,69,0.00,,SKC,0.00,VWS V14.01,2013-01-20 09:20:00,
2013-01-20 03:40:00,-3.8,-11.4,29.97,SSW,202,1.3,6.7,69,0.00,,SKC,0.00,VWS V14.01,2013-01-20 09:40:00,
2013-01-20 04:00:00,-4.2,-11.8,30.00,SSW,202,0.0,5.1,69,0.00,,SKC,0.00,VWS V14.01,2013-01-20 10:00:00,
2013-01-20 04:20:00,-4.5,-12.1,30.00,WSW,248,2.8,5.9,69,0.00,,SKC,0.00,VWS V14.01,2013-01-20 10:20:00,
2013-01-20 04:40:00,-4.7,-12.3,30.00,NNW,338,4.1,6.3,69,0.00,,SKC,0.00,VWS V14.01,2013-01-20 10:40:00,
2013-01-20 05:00:00,-4.7,-12.3,30.00,WSW,248,3.1,7.0,69,0.00,,SKC,0.00,VWS V14.01,2013-01-20 11:00:00,
2013-01-20 05:20:00,-4.9,-12.4,30.03,SW,225,1.5,7.0,69,0.00,,SKC,0.00,VWS V14.01,2013-01-20 11:20:00,
2013-01-20 05:40:00,-5.3,-12.8,30.03,WNW,292,3.3,5.5,69,0.00,,SKC,0.00,VWS V14.01,2013-01-20 11:40:00,
2013-01-20 06:00:00,-6.2,-13.7,30.03,NNW,338,4.1,7.0,69,0.00,,SKC,0.00,VWS V14.01,2013-01-20 12:00:00,
2013-01-20 06:20:00,-6.3,-13.8,30.06,West,270,2.3,7.0,69,0.00,,SKC,0.00,VWS V14.01,2013-01-20 12:20:00,
2013-01-20 06:40:00,-6.5,-14.0,30.06,SW,225,1.3,6.3,69,0.00,,SKC,0.00,VWS V14.01,2013-01-20 12:40:00,
2013-01-20 07:00:00,-6.7,-14.2,30.06,SSW,202,0.0,6.3,69,0.00,,SKC,0.00,VWS V14.01,2013-01-20 13:00:00,
2013-01-20 07:20:00,-7.1,-14.5,30.06,WSW,248,1.8,3.9,69,0.00,,SKC,0.00,VWS V14.01,2013-01-20 13:20:00,
2013-01-20 07:39:00,-7.6,-15.1,30.06,SSW,202,0.0,3.5,69,0.00,,SKC,0.00,VWS V14.01,2013-01-20 13:39:00,
2013-01-20 08:00:00,-8.0,-15.4,30.06,South,180,0.0,3.5,69,0.00,,SKC,0.00,VWS V14.01,2013-01-20 14:00:00,
2013-01-20 08:20:00,-8.0,-15.4,30.06,South,180,0.0,1.6,69,0.00,,SKC,0.00,VWS V14.01,2013-01-20 14:20:00,
2013-01-20 08:40:00,-7.2,-14.7,30.06,SSW,202,1.3,5.1,69,0.00,,SKC,0.00,VWS V14.01,2013-01-20 14:40:00,
2013-01-20 09:00:00,-6.2,-13.7,30.06,SSW,202,0.0,2.7,69,0.00,,SKC,0.00,VWS V14.01,2013-01-20 15:00:00,
2013-01-20 09:20:00,-4.9,-12.4,30.06,SSW,202,2.8,5.5,69,0.00,,SKC,0.00,VWS V14.01,2013-01-20 15:20:00,
2013-01-20 09:40:00,-4.4,-11.9,30.06,SSW,202,1.3,6.7,69,0.00,,SKC,0.00,VWS V14.01,2013-01-20 15:40:00,
2013-01-20 10:00:00,-3.5,-11.1,30.09,WNW,292,4.6,9.4,69,0.00,,SKC,0.00,VWS V14.01,2013-01-20 16:00:00,
2013-01-20 10:20:00,-2.6,-10.2,30.09,WNW,292,1.8,9.4,69,0.00,,SKC,0.00,VWS V14.01,2013-01-20 16:20:00,
2013-01-20 10:40:00,-1.8,-9.5,30.09,WSW,248,1.5,9.8,69,0.00,,SKC,0.00,VWS V14.01,2013-01-20 16:40:00,
2013-01-20 11:00:00,0.1,-7.6,30.09,SSW,202,3.1,11.0,69,0.00,,SKC,0.00,VWS V14.01,2013-01-20 17:00:00,
2013-01-20 11:20:00,1.2,-6.6,30.09,SW,225,1.3,9.4,69,0.00,,SKC,0.00,VWS V14.01,2013-01-20 17:20:00,
2013-01-20 11:40:00,2.8,-5.0,30.09,West,270,2.6,7.0,69,0.00,,SKC,0.00,VWS V14.01,2013-01-20 17:40:00,
2013-01-20 12:00:00,2.7,-5.2,30.06,SSW,202,2.3,11.7,69,0.00,,SKC,0.00,VWS V14.01,2013-01-20 18:00:00,
2013-01-20 12:20:00,3.6,-4.3,30.06,WSW,248,3.1,11.0,69,0.00,,SKC,0.00,VWS V14.01,2013-01-20 18:20:00,
2013-01-20 12:40:00,3.7,-4.1,30.06,WNW,292,1.8,6.7,69,0.00,,SKC,0.00,VWS V14.01,2013-01-20 18:40:00,
2013-01-20 13:00:00,4.5,-3.5,30.06,SW,225,2.3,8.6,69,0.00,,SKC,0.00,VWS V14.01,2013-01-20 19:00:00,
2013-01-20 13:20:00,4.8,-3.1,30.03,West,270,1.5,7.0,69,0.00,,SKC,0.00,VWS V14.01,2013-01-20 19:20:00,
2013-01-20 13:40:00,5.2,-2.8,30.03,West,270,3.1,10.6,69,0.00,,SKC,0.00,VWS V14.01,2013-01-20 19:40:00,
2013-01-20 14:00:00,5.0,-2.9,30.03,WSW,248,3.3,9.4,69,0.00,,SKC,0.00,VWS V14.01,2013-01-20 20:00:00,
2013-01-20 14:20:00,4.8,-3.1,30.03,SSW,202,4.4,13.3,69,0.00,,SKC,0.00,VWS V14.01,2013-01-20 20:20:00,
2013-01-20 14:40:00,4.1,-3.8,30.03,WSW,248,3.1,9.4,69,0.00,,SKC,0.00,VWS V14.01,2013-01-20 20:40:00,
2013-01-20 15:00:00,4.5,-3.5,30.03,SSW,202,1.8,10.6,69,0.00,,SKC,0.00,VWS V14.01,2013-01-20 21:00:00,
2013-01-20 15:20:00,3.9,-4.0,30.03,South,180,0.0,12.5,69,0.00,,SKC,0.00,VWS V14.01,2013-01-20 21:20:00,
2013-01-20 15:39:00,3.7,-4.1,30.03,SSW,202,2.3,9.8,69,0.00,,SKC,0.00,VWS V14.01,2013-01-20 21:39:00,
2013-01-20 16:00:00,3.0,-4.8,30.03,SSW,202,3.1,6.7,69,0.00,,SKC,0.00,VWS V14.01,2013-01-20 22:00:00,
2013-01-20 16:20:00,2.5,-5.3,30.03,WSW,248,2.3,7.4,69,0.00,,SKC,0.00,VWS V14.01,2013-01-20 22:20:00,
2013-01-20 16:40:00,1.6,-6.2,30.03,SSW,202,2.3,9.8,69,0.00,,SKC,0.00,VWS V14.01,2013-01-20 22:40:00,
2013-01-20 17:00:00,1.2,-6.6,30.00,SSW,202,1.5,5.5,69,0.00,,SKC,0.00,VWS V14.01,2013-01-20 23:00:00,
2013-01-20 17:20:00,0.7,-7.1,30.00,SSW,202,0.0,11.0,69,0.00,,SKC,0.00,VWS V14.01,2013-01-20 23:20:00,
2013-01-20 17:39:00,0.3,-7.4,30.00,SSW,202,1.3,5.1,69,0.00,,SKC,0.00,VWS V14.01,2013-01-20 23:39:00,
2013-01-20 18:00:00,0.1,-7.6,30.00,SSW,202,0.0,2.0,69,0.00,,SKC,0.00,VWS V14.01,2013-01-21 00:00:00,
2013-01-20 18:20:00,0.0,-7.8,30.03,SSW,202,0.0,2.0,69,0.00,,SKC,0.00,VWS V14.01,2013-01-21 00:20:00,
2013-01-20 18:40:00,0.0,-7.8,30.00,SSW,202,2.3,3.9,69,0.00,,SKC,0.00,VWS V14.01,2013-01-21 00:40:00,
2013-01-20 19:00:00,-0.4,-8.1,30.00,SSW,202,1.8,5.5,69,0.00,,SKC,0.00,VWS V14.01,2013-01-21 01:00:00,
2013-01-20 19:20:00,-0.9,-8.6,30.00,SSW,202,0.0,3.9,69,0.00,,SKC,0.00,VWS V14.01,2013-01-21 01:20:00,
2013-01-20 19:40:00,-1.3,-9.0,30.00,SSW,202,0.0,3.5,69,0.00,,SKC,0.00,VWS V14.01,2013-01-21 01:40:00,
2013-01-20 20:00:00,-1.8,-9.5,30.00,SSW,202,0.0,2.3,69,0.00,,SKC,0.00,VWS V14.01,2013-01-21 02:00:00,
2013-01-20 20:20:00,-2.6,-10.2,29.97,South,180,0.0,2.3,69,0.00,,SKC,0.00,VWS V14.01,2013-01-21 02:20:00,
2013-01-20 20:40:00,-3.5,-11.1,29.97,South,180,0.0,0.0,69,0.00,,SKC,0.00,VWS V14.01,2013-01-21 02:40:00,
2013-01-20 21:00:00,-4.4,-11.9,29.97,South,180,0.0,0.0,69,0.00,,SKC,0.00,VWS V14.01,2013-01-21 03:00:00,
2013-01-20 21:19:00,-3.8,-11.4,29.97,South,180,0.0,0.0,69,0.00,,SKC,0.00,VWS V14.01,2013-01-21 03:19:00,
2013-01-20 21:40:00,-3.1,-10.7,29.97,SSW,202,0.0,1.6,69,0.00,,SKC,0.00,VWS V14.01,2013-01-21 03:40:00,
2013-01-20 21:59:00,-3.3,-10.9,29.97,NNW,338,1.8,4.3,69,0.00,,SKC,0.00,VWS V14.01,2013-01-21 03:59:00,
2013-01-20 22:20:00,-3.3,-10.9,29.97,WSW,248,1.3,3.9,69,0.00,,SKC,0.00,VWS V14.01,2013-01-21 04:20:00,
2013-01-20 22:39:00,-3.5,-11.1,29.97,SW,225,2.3,4.7,69,0.00,,SKC,0.00,VWS V14.01,2013-01-21 04:39:00,
2013-01-20 23:00:00,-3.6,-11.2,29.97,NW,315,5.7,8.6,69,0.00,,SKC,0.00,VWS V14.01,2013-01-21 05:00:00,
2013-01-20 23:20:00,-4.2,-11.8,29.97,WSW,248,3.9,11.0,69,0.00,,SKC,0.00,VWS V14.01,2013-01-21 05:20:00,
2013-01-20 23:40:00,-4.5,-12.1,29.97,WSW,248,1.3,8.6,69,0.00,,SKC,0.00,VWS V14.01,2013-01-21 05:40:00,